Location: Pilipovskiye Korichintsy
(49.1833°N, 27.4667°E)
Time: 04:28:55
(UTC+00:00)

COSMOS 2406 - Visible Passes

Search period start: 27 October 2020 00:00
Search period end: 06 November 2020 00:00
Orbit: 844 x 863 km, 71.0° (Epoch: 26 October)

Date Brightness Start Highest point End Pass type
(mag) Time Alt. Az. Time Alt. Az. Time Alt. Az.
27 Oct 5.4 01:07:30 16° SE 01:09:39 19° E 01:13:35 10° NE visible
27 Oct 3.1 02:49:39 23° SW 02:53:18 77° WNW 02:59:01 10° NNE visible
28 Oct 5.3 00:57:22 19° ESE 00:58:10 20° E 01:02:08 10° NE visible
28 Oct 3.1 02:39:29 37° SW 02:41:50 76° WNW 02:47:32 10° NNE visible
29 Oct 5.4 00:47:02 20° E 00:47:02 20° E 00:50:41 10° NE visible
29 Oct 3.1 02:29:09 55° SW 02:30:22 75° WNW 02:36:04 10° NNE visible
29 Oct 4.6 04:11:41 10° W 04:15:40 19° NW 04:19:42 10° N visible
30 Oct 5.5 00:36:34 19° E 00:36:34 19° E 00:39:14 10° NE visible
30 Oct 3.0 02:18:40 73° W 02:18:53 75° WNW 02:24:35 10° NNE visible
30 Oct 4.6 04:00:46 12° WNW 04:04:13 19° NW 04:08:12 10° N visible
31 Oct 5.7 00:25:58 16° ENE 00:25:58 16° ENE 00:27:47 10° NE visible
31 Oct 3.3 02:08:03 66° N 02:08:03 66° N 02:13:07 10° NNE visible
31 Oct 4.7 03:50:09 14° WNW 03:52:45 19° NW 03:56:43 10° N visible
01 Nov 5.9 00:15:16 14° ENE 00:15:16 14° ENE 00:16:20 10° NE visible
01 Nov 3.7 01:57:21 51° N 01:57:21 51° N 02:01:39 10° NNE visible
01 Nov 4.7 03:39:27 16° WNW 03:41:18 19° NW 03:45:15 10° N visible
02 Nov 6.0 00:04:29 11° ENE 00:04:29 11° ENE 00:04:53 10° NE visible
02 Nov 4.1 01:46:34 40° NNE 01:46:34 40° NNE 01:50:10 10° NNE visible
02 Nov 4.6 03:28:40 18° NW 03:29:51 19° NW 03:33:46 10° N visible
03 Nov 4.6 01:35:44 32° NNE 01:35:44 32° NNE 01:38:42 10° NNE visible
03 Nov 4.7 03:17:49 18° NW 03:18:23 18° NW 03:22:17 10° N visible
04 Nov 4.9 01:24:51 26° NNE 01:24:51 26° NNE 01:27:14 10° NNE visible
04 Nov 4.7 03:06:55 18° NW 03:06:55 18° NW 03:10:48 10° N visible
05 Nov 5.2 01:13:55 21° NNE 01:13:55 21° NNE 01:15:46 10° NNE visible
05 Nov 4.8 02:55:59 18° NNW 02:55:59 18° NNW 02:59:20 10° N visible
